Location: Newark
(43.6583°N, 1.6617°E)
Time: 16:49:24
(UTC+00:00)

Transit 4A - Pass Details

Date: 30 August 2019
Orbit: 865 x 980 km, 66.8° (Epoch: 16 September)

Event Time Altitude Azimuth Distance (km) Brightness Sun altitude
Rises 00:24:27 0° 331° (NNW) 3,635 11.6 -36.7°
Reaches altitude 10° 00:27:09 10° 337° (NNW) 2,670 10.9 -36.6°
Enters shadow 00:31:58 42° 20° (NNE) 1,301 8.9 -36.5°
